When you browse on this site, cookies collect data to enhance your experience and personalize the content and advertising you see.
Visit our Privacy Policy to learn more. By continuing to use the site, you agree to this use of cookies and data.
  • In Czech Republic
  • List of Countries
  • For 7 days
  • Water Temperature
  • Weather Map
  • Weather Widgets
  • user-avatar
    Login

    Hourly Weather Andora

    Today, 15 September, Sunday

    Time Temperature Precipitation Wind Pressure Humidity
    00:00 +12°C° 0 mm 1 mps 631 mmHg 72%
    01:00 +12°C° 0 mm 1 mps 630 mmHg 68%
    02:00 +12°C° 0 mm 1 mps 630 mmHg 65%
    03:00 +12°C° 0 mm 1 mps 629 mmHg 61%
    04:00 +12°C° 0 mm 1 mps 629 mmHg 62%
    05:00 +12°C° 0 mm 1 mps 629 mmHg 63%
    06:00 +12°C° 0 mm 1 mps 629 mmHg 64%
    07:00 +15°C° 0 mm 1 mps 630 mmHg 60%
    08:00 +18°C° 0 mm 1 mps 632 mmHg 56%
    09:00 +21°C° 0 mm 1 mps 633 mmHg 52%
    10:00 +21°C° 0.2 mm 1 mps 633 mmHg 51%
    11:00 +22°C° 0.2 mm 1 mps 633 mmHg 49%
    12:00 +23°C° 0.2 mm 1 mps 633 mmHg 47%
    13:00 +23°C° 0.3 mm 1 mps 632 mmHg 47%
    14:00 +23°C° 0.3 mm 2 mps 632 mmHg 47%
    15:00 +23°C° 0.3 mm 2 mps 632 mmHg 46%
    16:00 +21°C° 0 mm 1 mps 631 mmHg 55%
    17:00 +19°C° 0 mm 1 mps 630 mmHg 63%
    18:00 +15°C° 0 mm 0 mps 629 mmHg 71%
    19:00 +14°C° 0 mm 0 mps 629 mmHg 72%
    20:00 +15°C° 0 mm 1 mps 629 mmHg 73%
    21:00 +14°C° 0 mm 1 mps 629 mmHg 74%
    22:00 +14°C° 0 mm 1 mps 629 mmHg 74%
    23:00 +14°C° 0 mm 1 mps 629 mmHg 74%

    Tomorrow, 16 September, Monday

    Time Temperature Precipitation Wind Pressure Humidity
    00:00 +14°C° 0 mm 1 mps 629 mmHg 74%
    01:00 +13°C° 0.1 mm 1 mps 628 mmHg 76%
    02:00 +13°C° 0.1 mm 1 mps 628 mmHg 77%
    03:00 +13°C° 0.1 mm 1 mps 627 mmHg 78%
    04:00 +13°C° 0.2 mm 1 mps 627 mmHg 79%
    05:00 +13°C° 0.2 mm 1 mps 627 mmHg 80%
    06:00 +13°C° 0.2 mm 1 mps 627 mmHg 81%
    07:00 +15°C° 0.1 mm 1 mps 628 mmHg 75%
    08:00 +18°C° 0.1 mm 1 mps 629 mmHg 70%
    09:00 +20°C° 0.1 mm 1 mps 630 mmHg 64%
    10:00 +21°C° 0.3 mm 1 mps 630 mmHg 62%
    11:00 +21°C° 0.3 mm 2 mps 630 mmHg 59%
    12:00 +21°C° 0.3 mm 2 mps 630 mmHg 57%
    13:00 +21°C° 0.3 mm 2 mps 630 mmHg 58%
    14:00 +21°C° 0.3 mm 2 mps 630 mmHg 58%
    15:00 +20°C° 0.3 mm 2 mps 629 mmHg 59%
    16:00 +20°C° 0.3 mm 1 mps 628 mmHg 67%
    17:00 +18°C° 0.3 mm 1 mps 628 mmHg 76%
    18:00 +15°C° 0.3 mm 1 mps 627 mmHg 84%
    19:00 +15°C° 0 mm 1 mps 627 mmHg 86%
    20:00 +14°C° 0 mm 1 mps 627 mmHg 88%
    21:00 +14°C° 0 mm 1 mps 627 mmHg 90%
    22:00 +13°C° 0 mm 1 mps 627 mmHg 90%
    23:00 +13°C° 0 mm 1 mps 626 mmHg 90%

    Day after tomorrow, 17 September, Tuesday

    Time Temperature Precipitation Wind Pressure Humidity
    00:00 +12°C° 0 mm 2 mps 626 mmHg 90%
    01:00 +12°C° 0 mm 1 mps 626 mmHg 90%
    02:00 +12°C° 0 mm 1 mps 626 mmHg 90%
    03:00 +12°C° 0 mm 1 mps 626 mmHg 89%
    04:00 +12°C° 0 mm 1 mps 625 mmHg 88%
    05:00 +12°C° 0 mm 1 mps 625 mmHg 87%
    06:00 +12°C° 0 mm 1 mps 625 mmHg 86%
    07:00 +14°C° 0 mm 1 mps 626 mmHg 78%
    08:00 +18°C° 0 mm 1 mps 628 mmHg 69%
    09:00 +19°C° 0 mm 0 mps 629 mmHg 61%
    10:00 +21°C° 0.1 mm 1 mps 629 mmHg 58%
    11:00 +22°C° 0.1 mm 1 mps 629 mmHg 55%
    12:00 +22°C° 0.1 mm 1 mps 628 mmHg 52%
    13:00 +21°C° 0.6 mm 1 mps 628 mmHg 59%
    14:00 +21°C° 0.6 mm 1 mps 627 mmHg 66%
    15:00 +20°C° 0.6 mm 1 mps 626 mmHg 72%
    16:00 +18°C° 0.9 mm 1 mps 626 mmHg 76%
    17:00 +15°C° 0.9 mm 0 mps 625 mmHg 81%
    18:00 +14°C° 0.9 mm 0 mps 624 mmHg 85%
    19:00 +13°C° 0.5 mm 0 mps 624 mmHg 86%
    20:00 +14°C° 0.5 mm 1 mps 624 mmHg 86%
    21:00 +13°C° 0.5 mm 1 mps 624 mmHg 87%
    22:00 +13°C° 0.5 mm 1 mps 624 mmHg 88%
    23:00 +12°C° 0.5 mm 1 mps 624 mmHg 88%

    18 September, Wednesday

    Time Temperature Precipitation Wind Pressure Humidity
    00:00 +12°C° 0.5 mm 1 mps 624 mmHg 88%
    01:00 +12°C° 0.1 mm 1 mps 624 mmHg 88%
    02:00 +12°C° 0.1 mm 1 mps 624 mmHg 88%
    03:00 +11°C° 0.1 mm 1 mps 624 mmHg 88%
    04:00 +11°C° 0.1 mm 1 mps 624 mmHg 88%
    05:00 +11°C° 0.1 mm 1 mps 624 mmHg 89%
    06:00 +11°C° 0.1 mm 1 mps 623 mmHg 89%
    07:00 +13°C° 0.1 mm 1 mps 625 mmHg 82%
    08:00 +16°C° 0.1 mm 1 mps 626 mmHg 76%
    09:00 +19°C° 0.1 mm 1 mps 627 mmHg 70%
    10:00 +19°C° 0.6 mm 1 mps 627 mmHg 67%
    11:00 +20°C° 0.6 mm 1 mps 627 mmHg 64%
    12:00 +21°C° 0.6 mm 1 mps 627 mmHg 61%
    13:00 +20°C° 1.3 mm 1 mps 627 mmHg 63%
    14:00 +20°C° 1.3 mm 1 mps 626 mmHg 65%
    15:00 +19°C° 1.3 mm 1 mps 626 mmHg 68%
    16:00 +18°C° 1.2 mm 1 mps 625 mmHg 74%
    17:00 +15°C° 1.2 mm 1 mps 625 mmHg 80%
    18:00 +14°C° 1.2 mm 1 mps 624 mmHg 86%
    19:00 +13°C° 1.3 mm 1 mps 624 mmHg 87%
    20:00 +12°C° 1.3 mm 1 mps 625 mmHg 89%
    21:00 +12°C° 1.3 mm 1 mps 625 mmHg 91%
    22:00 +12°C° 0.4 mm 1 mps 625 mmHg 90%
    23:00 +12°C° 0.4 mm 1 mps 625 mmHg 89%

    19 September, Thursday

    Time Temperature Precipitation Wind Pressure Humidity
    00:00 +12°C° 0.4 mm 1 mps 625 mmHg 88%
    01:00 +11°C° 0.1 mm 1 mps 625 mmHg 88%
    02:00 +11°C° 0.1 mm 1 mps 624 mmHg 88%
    03:00 +10°C° 0.1 mm 1 mps 624 mmHg 87%
    04:00 +10°C° 0.1 mm 1 mps 624 mmHg 88%
    05:00 +10°C° 0.1 mm 1 mps 624 mmHg 88%
    06:00 +10°C° 0.1 mm 1 mps 624 mmHg 89%
    07:00 +12°C° 0.2 mm 1 mps 625 mmHg 84%
    08:00 +14°C° 0.2 mm 1 mps 626 mmHg 78%
    09:00 +16°C° 0.2 mm 1 mps 627 mmHg 73%
    10:00 +16°C° 0.9 mm 1 mps 627 mmHg 73%
    11:00 +16°C° 0.9 mm 1 mps 627 mmHg 73%
    12:00 +18°C° 0.9 mm 1 mps 628 mmHg 73%
    13:00 +16°C° 1.3 mm 1 mps 627 mmHg 75%
    14:00 +16°C° 1.3 mm 1 mps 627 mmHg 77%
    15:00 +15°C° 1.3 mm 1 mps 627 mmHg 79%
    16:00 +14°C° 0.8 mm 1 mps 626 mmHg 83%
    17:00 +13°C° 0.8 mm 1 mps 626 mmHg 87%
    18:00 +11°C° 0.8 mm 1 mps 626 mmHg 92%
    19:00 +11°C° 0 mm 1 mps 626 mmHg 92%
    20:00 +10°C° 0 mm 1 mps 626 mmHg 92%
    21:00 +9°C° 0 mm 1 mps 626 mmHg 92%
    22:00 +9°C° 0 mm 1 mps 626 mmHg 88%
    23:00 +9°C° 0 mm 1 mps 626 mmHg 85%

    20 September, Friday

    Time Temperature Precipitation Wind Pressure Humidity
    00:00 +8°C° 0 mm 1 mps 626 mmHg 81%
    01:00 +8°C° 0 mm 1 mps 626 mmHg 78%
    02:00 +8°C° 0 mm 1 mps 626 mmHg 75%
    03:00 +8°C° 0 mm 1 mps 626 mmHg 72%
    04:00 +8°C° 0 mm 1 mps 626 mmHg 71%
    05:00 +8°C° 0 mm 1 mps 626 mmHg 70%
    06:00 +8°C° 0 mm 1 mps 626 mmHg 69%
    07:00 +11°C° 0 mm 1 mps 627 mmHg 63%
    08:00 +13°C° 0 mm 1 mps 629 mmHg 57%
    09:00 +16°C° 0 mm 1 mps 630 mmHg 51%
    10:00 +18°C° 0 mm 1 mps 631 mmHg 49%
    11:00 +19°C° 0 mm 1 mps 631 mmHg 48%
    12:00 +19°C° 0 mm 2 mps 631 mmHg 46%
    13:00 +19°C° 0 mm 2 mps 631 mmHg 50%
    14:00 +18°C° 0 mm 2 mps 631 mmHg 54%
    15:00 +18°C° 0 mm 2 mps 630 mmHg 57%
    16:00 +16°C° 0 mm 2 mps 630 mmHg 68%
    17:00 +14°C° 0 mm 1 mps 629 mmHg 79%
    18:00 +13°C° 0 mm 1 mps 629 mmHg 90%
    19:00 +12°C° 0 mm 1 mps 629 mmHg 91%
    20:00 +12°C° 0 mm 1 mps 629 mmHg 93%
    21:00 +11°C° 0 mm 1 mps 629 mmHg 94%
    22:00 +11°C° 0 mm 1 mps 629 mmHg 94%
    23:00 +11°C° 0 mm 1 mps 629 mmHg 93%
    Show more